FW6349 Weather Reports


Display with metric or nautical units.
time (UTC)temp
F
wind
direction
speed
MPH
gust
MPH
rain 1hr
in
rain 24hr
in
rain mn
in
humidity
%
barometer
mb
20221208051516 0 0.0 0.0 0.00 0.00 0.00 85 1030.6
20221208050516 0 0.0 0.0 0.00 0.00 0.00 85 1030.7
20221208045541 0 0.0 0.0 0.00 0.00 0.00 85 1030.9
20221208044516 0 0.0 0.0 0.00 0.00 0.00 85 1031.2
20221208043516 0 0.0 0.0 0.00 0.00 0.00 85 1031.3
20221208042517 0 0.0 0.0 0.00 0.00 0.00 85 1031.2
20221208041517 0 0.0 0.0 0.00 0.00 0.00 85 1030.9
20221208040516 0 0.0 0.0 0.00 0.00 0.00 85 1030.9
20221208035515 1 0.0 0.0 0.00 0.00 0.00 85 1030.8
20221208034515 1 0.0 0.0 0.00 0.00 0.00 85 1030.9
20221208033516 1 0.0 0.0 0.00 0.00 0.00 84 1030.8
20221208032516 1 0.0 1.0 0.00 0.00 0.00 84 1030.9
20221208031515 2 0.0 0.0 0.00 0.00 0.00 85 1030.8
20221208030516 2 0.0 0.0 0.00 0.00 0.00 85 1030.8
20221208025515 2 0.0 1.0 0.00 0.00 0.00 84 1031.1
20221208024538 2 0 1.0 3.0 0.00 0.00 0.00 84 1031.1
20221208023516 3 0.0 0.0 0.00 0.00 0.00 84 1031.4
20221208022515 3 0.0 0.0 0.00 0.00 0.00 84 1031.5
20221208021515 3 0.0 0.0 0.00 0.00 0.00 84 1031.3
20221208020517 3 0.0 0.0 0.00 0.00 0.00 83 1031.1
20221208015543 4 0.0 0.0 0.00 0.00 0.00 83 1030.9
20221208014518 4 0.0 0.0 0.00 0.00 0.00 83 1030.8
20221208013518 5 0.0 0.0 0.00 0.00 0.00 82 1030.8
20221208012517 5 0.0 0.0 0.00 0.00 0.00 82 1030.9
20221208011517 6 0.0 1.0 0.00 0.00 0.00 82 1030.9
20221208010522 6 0.0 0.0 0.00 0.00 0.00 81 1030.6
20221208005517 6 0.0 0.0 0.00 0.00 0.00 80 1030.7
20221208004517 7 0.0 0.0 0.00 0.00 0.00 79 1030.6
20221208003517 7 0.0 0.0 0.00 0.00 0.00 79 1030.7
20221208002517 8 0.0 1.0 0.00 0.00 0.00 78 1030.5
20221208001618 9 0.0 0.0 0.00 0.00 0.00 77 1030.5
20221208000517 10 0.0 0.0 0.00 0.00 0.00 77 1030.6
20221207235517 10 0.0 0.0 0.00 0.00 0.00 76 1030.6
20221207234517 11 0.0 0.0 0.00 0.00 0.00 76 1030.6
20221207233517 11 0.0 0.0 0.00 0.00 0.00 74 1030.4
20221207232517 12 0.0 1.0 0.00 0.00 0.00 74 1030.3
20221207231517 12 23 1.0 3.0 0.00 0.00 0.00 73 1030.3
20221207230517 13 23 1.0 2.0 0.00 0.00 0.00 73 1030.5
20221207225517 13 0 2.0 4.0 0.00 0.00 0.00 72 1030.5
20221207224517 14 23 2.0 3.0 0.00 0.00 0.00 72 1030.8
20221207223517 14 0.0 2.0 0.00 0.00 0.00 71 1031.0
20221207222517 14 45 1.0 3.0 0.00 0.00 0.00 71 1031.0
20221207221517 15 45 2.0 4.0 0.00 0.00 0.00 70 1030.9
20221207220539 15 0 3.0 7.0 0.00 0.00 0.00 70 1030.8
20221207215517 15 23 3.0 9.0 0.00 0.00 0.00 70 1030.9
20221207214517 16 0 2.0 5.0 0.00 0.00 0.00 69 1030.7
20221207213517 16 338 3.0 6.0 0.00 0.00 0.00 69 1030.5
20221207212537 16 0 3.0 5.0 0.00 0.00 0.00 68 1030.2
20221207211517 17 0 4.0 8.0 0.00 0.00 0.00 67 1030.2
20221207210519 18 338 5.0 9.0 0.00 0.00 0.00 66 1030.4
20221207205521 18 23 5.0 9.0 0.00 0.00 0.00 66 1030.3
20221207204520 19 0 5.0 10.0 0.00 0.00 0.00 65 1030.3
20221207203517 18 0 2.0 8.0 0.00 0.00 0.00 68 1030.0
20221207202517 18 0 5.0 10.0 0.00 0.00 0.00 66 1029.9
20221207201516 18 0 5.0 10.0 0.00 0.00 0.00 67 1029.8
20221207200516 18 0 5.0 9.0 0.00 0.00 0.00 66 1029.9
20221207195519 18 23 5.0 9.0 0.00 0.00 0.00 66 1029.9
20221207194517 19 0 5.0 11.0 0.00 0.00 0.00 67 1029.8
20221207193537 18 23 6.0 10.0 0.00 0.00 0.00 67 1029.7
20221207192516 19 23 6.0 10.0 0.00 0.00 0.00 67 1029.7
20221207191559 19 0 5.0 8.0 0.00 0.00 0.00 67 1029.7
20221207190517 19 0 6.0 9.0 0.00 0.00 0.00 66 1029.8
20221207185617 19 0 5.0 10.0 0.00 0.00 0.00 67 1029.7
20221207184519 19 45 5.0 10.0 0.00 0.00 0.00 68 1029.5
20221207183557 19 23 6.0 10.0 0.00 0.00 0.00 68 1029.7
20221207182516 18 0 4.0 8.0 0.00 0.00 0.00 69 1029.7
20221207181516 18 23 6.0 9.0 0.00 0.00 0.00 69 1029.6
20221207180516 18 23 4.0 9.0 0.00 0.00 0.00 70 1029.7
20221207175517 18 23 5.0 10.0 0.00 0.00 0.00 71 1029.5
20221207174516 17 0 6.0 11.0 0.00 0.00 0.00 72 1029.7
20221207173518 17 0 6.0 11.0 0.00 0.00 0.00 74 1029.4
20221207172517 16 0 7.0 12.0 0.00 0.00 0.00 74 1029.4
20221207171523 16 23 6.0 11.0 0.00 0.00 0.00 76 1029.5
20221207170516 16 45 5.0 10.0 0.00 0.00 0.00 79 1029.6
20221207165517 15 23 6.0 11.0 0.00 0.00 0.00 80 1029.7
20221207164516 14 23 8.0 16.0 0.00 0.00 0.00 80 1029.5
20221207163517 14 23 8.0 16.0 0.00 0.00 0.00 82 1029.4
20221207162516 13 0 8.0 13.0 0.00 0.00 0.00 83 1029.6
20221207161516 13 0 8.0 16.0 0.00 0.00 0.00 85 1029.6
20221207160521 13 0 6.0 12.0 0.00 0.00 0.00 86 1029.3
20221207155516 13 0 5.0 10.0 0.00 0.00 0.00 86 1029.0
20221207154537 13 0 6.0 12.0 0.00 0.00 0.00 86 1028.8
20221207153536 13 0 6.0 14.0 0.00 0.00 0.00 86 1028.7
20221207152516 14 0 8.0 15.0 0.00 0.00 0.00 86 1028.5
20221207151516 14 0 5.0 9.0 0.00 0.00 0.00 86 1028.4
20221207150519 14 0 8.0 16.0 0.00 0.00 0.00 86 1028.1
20221207145516 14 0 3.0 6.0 0.00 0.00 0.00 86 1027.7
20221207144516 15 0 5.0 10.0 0.00 0.00 0.00 86 1027.6
20221207143516 15 0 5.0 10.0 0.00 0.00 0.00 86 1027.5
20221207142517 15 0 5.0 10.0 0.00 0.00 0.00 86 1027.2
20221207141516 15 23 3.0 7.0 0.00 0.00 0.00 85 1026.9
20221207140516 15 338 4.0 8.0 0.00 0.00 0.00 85 1026.6
20221207135516 15 338 3.0 3.0 0.00 0.00 0.00 84 1026.1
20221207135045 15 0 6.0 8.0 0.00 0.00 0.00 83 1026.1
20221207134516 15 0 7.0 11.0 0.00 0.00 0.00 83 1025.7
20221207133516 16 23 6.0 12.0 0.00 0.00 0.00 81 1025.3
20221207132521 16 0 3.0 5.0 0.00 0.00 0.00 80 1025.2
20221207131516 16 0 4.0 9.0 0.00 0.00 0.00 78 1025.1
20221207130516 16 0 6.0 12.0 0.00 0.00 0.00 77 1025.3
20221207125521 16 23 5.0 11.0 0.00 0.00 0.00 77 1025.1
20221207124516 16 23 5.0 10.0 0.00 0.00 0.00 77 1024.6
20221207123516 16 0 6.0 12.0 0.00 0.00 0.00 77 1024.3
20221207122515 16 0 4.0 8.0 0.00 0.00 0.00 77 1024.1
20221207121516 16 23 5.0 9.0 0.00 0.00 0.00 77 1024.0
20221207120516 16 23 5.0 10.0 0.00 0.00 0.00 77 1023.9
20221207115516 17 0 4.0 10.0 0.00 0.00 0.00 77 1023.9
20221207114515 17 45 5.0 11.0 0.00 0.00 0.00 77 1023.8
20221207113517 17 23 4.0 9.0 0.00 0.00 0.00 77 1023.9
20221207112516 17 23 4.0 11.0 0.00 0.00 0.00 77 1023.7
20221207111516 17 0 3.0 8.0 0.00 0.00 0.00 78 1023.9
20221207110516 17 0 5.0 9.0 0.00 0.00 0.00 78 1024.0
20221207105516 17 23 3.0 9.0 0.00 0.00 0.00 78 1024.1
20221207104516 17 0 4.0 5.0 0.00 0.00 0.00 78 1024.0
20221207103516 17 0 3.0 5.0 0.00 0.00 0.00 78 1023.8
20221207102516 17 23 3.0 5.0 0.00 0.00 0.00 78 1023.7
20221207101515 17 0 3.0 5.0 0.00 0.00 0.00 78 1023.7
20221207100536 17 0 3.0 5.0 0.00 0.00 0.00 78 1023.7
20221207095520 17 0 2.0 5.0 0.00 0.00 0.00 77 1023.6
20221207094516 17 0 3.0 8.0 0.00 0.00 0.00 77 1023.3
20221207093516 17 0 2.0 5.0 0.00 0.00 0.00 77 1023.1
20221207092536 18 0 3.0 5.0 0.00 0.00 0.00 76 1023.0
20221207091515 18 23 3.0 5.0 0.00 0.00 0.00 76 1022.8
20221207090518 18 0 4.0 9.0 0.00 0.00 0.00 76 1022.9
20221207085536 18 0 5.0 9.0 0.00 0.00 0.00 76 1022.8
20221207084537 19 0 5.0 9.0 0.00 0.00 0.00 76 1022.6
20221207083516 19 23 5.0 10.0 0.00 0.00 0.00 76 1022.5
20221207082515 19 23 3.0 4.0 0.00 0.00 0.00 76 1022.3
20221207081515 19 0 6.0 11.0 0.00 0.00 0.00 76 1022.1
20221207080515 20 0 6.0 13.0 0.00 0.00 0.00 76 1022.2
20221207075518 20 0 7.0 14.0 0.00 0.00 0.00 77 1022.1
20221207074517 20 0 7.0 16.0 0.00 0.00 0.00 78 1021.9
20221207073517 20 0 6.0 14.0 0.00 0.00 0.00 79 1021.6
20221207072518 20 0 6.0 11.0 0.00 0.00 0.00 80 1021.4
20221207071517 20 0 4.0 9.0 0.00 0.00 0.00 80 1021.5
20221207070517 20 0 5.0 9.0 0.00 0.00 0.00 81 1021.4
20221207065518 20 0 3.0 6.0 0.00 0.00 0.00 81 1021.0
20221207064518 20 23 3.0 5.0 0.00 0.00 0.00 82 1020.9
20221207063538 20 0 2.0 5.0 0.00 0.00 0.00 82 1020.9
20221207062516 20 0 2.0 5.0 0.00 0.00 0.00 82 1020.6
20221207061518 20 0 3.0 5.0 0.00 0.00 0.00 83 1020.6
20221207060519 20 0 3.0 8.0 0.00 0.00 0.00 83 1020.4
20221207055536 19 0 3.0 5.0 0.00 0.00 0.00 83 1020.5
20221207054516 19 113 1.0 2.0 0.00 0.00 0.00 84 1020.5
20221207053516 19 0.0 1.0 0.00 0.00 0.00 84 1020.4
20221207052516 19 0.0 0.0 0.00 0.00 0.00 83 1020.2